Flag for New Zealand Weather past 2 weeks in Oban, New Zealand

Now
54 °F

Cool.


Feels Like: 54 °F
Forecast: 53 / 68 °F
Wind: 1 mph from Southwest

Location: Christchurch Airport

Current Time: Dec 19, 2014 at 12:54:56 AM

Latest Report: Dec 19, 2014 at 12:30 AM


Visibility: N/A

Pressure: 29.86 "Hg

Humidity: 94%

Dew point: 52 °F

Location of ObanLocation

Historic Weather in Oban — Graph

°F

Oban temperature yesterday

Maximum temperature yesterday: 72 °F (at 4:30 PM)
Minimum temperature yesterday: 55 °F (at 10:00 PM)
Average temperature yesterday: 60 °F

Past Weeks' High & Low Weather Summary

 TemperatureHumidityPressure
High81 °F (Dec 7, 10:30 AM)100% (Dec 4, 12:00 AM)30.30 "Hg (Dec 4, 12:00 AM)
Low41 °F (Dec 14, 5:00 AM)34% (Dec 7, 10:30 AM)29.59 "Hg (Dec 10, 2:00 AM)
Average57 °F77%29.95 "Hg
* Reported Dec 3 11:00 PM — Dec 18 11:30 PM, Oban, Weather by CustomWeather, © 2014

Note: Actual official high and low records may vary slightly from our data, if they occured in-between our weather recording intervals... More about our weather records

Advertising

Oban weather history for previous 24 hours

 ConditionsComfort  
Time TempWeatherWind HumidityBarometerVisibility
11:30 PM
Dec 18
55 °FCool.6 mph88%29.86 "HgN/A
11:00 PM55 °FCool.6 mph88%29.86 "HgN/A
10:30 PM55 °FCool.6 mph88%29.86 "HgN/A
10:00 PM55 °FCool.7 mph82%29.86 "HgN/A
9:30 PM57 °FCool.7 mph77%29.86 "HgN/A
9:00 PM59 °FCool.10 mph72%29.83 "HgN/A
8:30 PM61 °FCool.13 mph68%29.83 "HgN/A
8:00 PM63 °FMild.15 mph64%29.80 "HgN/A
7:30 PM64 °FMild.17 mph64%29.80 "HgN/A
7:00 PM66 °FMild.18 mph64%29.80 "HgN/A
6:30 PM68 °FMild.18 mph64%29.77 "HgN/A
6:00 PM68 °FPassing clouds.16 mph69%29.77 "HgN/A
5:30 PM68 °FPassing clouds.16 mph73%29.77 "HgN/A
4:30 PM72 °FBroken clouds.14 mph69%29.74 "HgN/A
4:00 PM68 °FPartly sunny.13 mph73%29.74 "HgN/A
3:30 PM64 °FPartly sunny.10 mph83%29.74 "HgN/A
3:00 PM64 °FLight rain. Partly sunny.12 mph88%29.74 "HgN/A
2:30 PM63 °FSprinkles. Cloudy.13 mph88%29.74 "HgN/A
2:00 PM63 °FSprinkles. Partly sunny.13 mph94%29.74 "HgN/A
1:30 PM63 °FSprinkles. Broken clouds.13 mph94%29.74 "HgN/A
1:00 PM63 °FSprinkles. Partly sunny.13 mph88%29.74 "HgN/A
12:30 PM61 °FSprinkles. Overcast.13 mph94%29.74 "HgN/A
12:00 PM61 °FSprinkles. Low clouds.14 mph94%29.74 "HgN/A
11:30 AM61 °FSprinkles. Partly sunny.12 mph94%29.74 "HgN/A
11:00 AM63 °FSprinkles. Mostly cloudy.10 mph88%29.74 "HgN/A
10:30 AM61 °FOvercast.13 mph88%29.71 "HgN/A
10:00 AM61 °FPartly sunny.12 mph88%29.71 "HgN/A
9:30 AM59 °FMostly cloudy.8 mph94%29.71 "HgN/A
9:00 AM59 °FDrizzle. Low clouds.5 mph94%29.71 "HgN/A
8:30 AM59 °FLow clouds.1 mph94%29.71 "Hg6 mi
8:00 AM59 °FLow clouds.2 mph94%29.71 "HgN/A
7:30 AM59 °FLow clouds.6 mph94%29.68 "Hg6 mi
7:00 AM59 °FLow clouds.6 mph94%29.68 "Hg6 mi
6:30 AM59 °FLow clouds.7 mph94%29.65 "Hg6 mi
6:00 AM57 °FLow clouds.10 mph100%29.65 "Hg4 mi
5:30 AM57 °FLow clouds.8 mph100%29.65 "HgN/A
5:00 AM57 °FLow clouds.8 mph100%29.65 "HgN/A
4:30 AM57 °FLow clouds.12 mph100%29.65 "HgN/A
4:00 AM57 °FLow clouds.10 mph100%29.65 "Hg5 mi
3:30 AM57 °FLow clouds.9 mph100%29.65 "Hg4 mi
3:00 AM57 °FLow clouds.10 mph100%29.65 "Hg5 mi
2:30 AM57 °FLow clouds.10 mph100%29.68 "Hg5 mi
2:00 AM57 °FLow clouds.13 mph100%29.68 "Hg4 mi
1:30 AM57 °FLow clouds.13 mph100%29.68 "Hg5 mi
1:00 AM57 °FLow clouds.15 mph100%29.68 "Hg5 mi
12:30 AM57 °FLow clouds.17 mph100%29.68 "Hg5 mi
12:00 AM57 °FLow clouds.15 mph100%29.71 "Hg6 mi
Weather by CustomWeather, © 2014

See weather overviewHow to use our weather pages